WD9U Weather Reports


time (UTC)temp
C
wind
direction
speed
KPH
gust
KPH
rain 1hr
cm
rain 24hr
cm
rain mn
cm
humidity
%
barometer
mb
20260906173707 25 2 0.0 3.2 0.00 0.00 0.00 74 1020.7
20260906173609 25 0 0.0 0.0 0.00 0.00 0.00 73 1020.7
20260906173107 25 35 1.6 3.2 0.00 0.00 0.00 74 1020.8
20260906172506 25 36 0.0 1.6 0.00 0.00 0.00 75 1021.0
20260906171906 25 67 1.6 4.8 0.00 0.00 0.00 74 1021.0
20260906171608 25 47 0.0 1.6 0.00 0.00 0.00 75 1021.1
20260906171307 25 34 0.0 3.2 0.00 0.00 0.00 76 1021.1
20260906170706 24 49 1.6 6.4 0.00 0.00 0.00 77 1021.1
20260906170106 24 45 1.6 3.2 0.00 0.00 0.00 77 1021.2
20260906165504 24 15 0.0 1.6 0.00 0.00 0.00 77 1021.2
20260906164904 23 46 1.6 4.8 0.00 0.00 0.00 79 1021.1
20260906164304 23 343 1.6 3.2 0.00 0.00 0.00 79 1020.9
20260906163703 23 343 1.6 4.8 0.00 0.00 0.00 79 1020.9
20260906163607 23 30 1.6 1.6 0.00 0.00 0.00 80 1020.9
20260906163103 23 0 1.6 3.2 0.00 0.00 0.00 81 1020.8
20260906162503 23 7 0.0 1.6 0.00 0.00 0.00 80 1021.0
20260906161903 23 339 1.6 4.8 0.00 0.00 0.00 80 1021.0
20260906161606 23 326 1.6 6.4 0.00 0.00 0.00 80 1021.0
20260906161302 23 327 1.6 4.8 0.00 0.00 0.00 80 1021.1
20260906160702 23 348 3.2 4.8 0.00 0.00 0.00 80 1021.0
20260906155605 23 328 1.6 3.2 0.00 0.00 0.00 78 1021.1
20260906155502 23 329 1.6 3.2 0.00 0.00 0.00 78 1021.1
20260906154902 24 315 3.2 4.8 0.00 0.00 0.00 77 1021.1
20260906154302 24 0 0.0 0.0 0.00 0.00 0.00 79 1020.9
20260906153702 24 0 0.0 0.0 0.00 0.00 0.00 82 1021.0
20260906153605 23 0 0.0 0.0 0.00 0.00 0.00 82 1021.0
20260906153101 23 0 0.0 0.0 0.00 0.00 0.00 82 1021.1
20260906152501 23 112 1.6 4.8 0.00 0.00 0.00 85 1021.2
20260906151900 22 0 0.0 0.0 0.00 0.00 0.00 87 1021.3
20260906151841 22 93 1.6 4.8 0.00 0.00 0.00 87 1021.1
20260906151612 22 93 1.6 4.8 0.00 0.00 0.00 87 1021.1
20260906151154 22 95 3.2 6.4 0.00 0.00 0.00 88 1021.2
20260906150550 21 126 1.6 4.8 0.00 0.00 0.00 90 1021.4
20260906145948 21 0 0.0 0.0 0.00 0.00 0.00 91 1021.5
20260906145717 21 0 0.0 0.0 0.00 0.00 0.00 91 1021.5
20260906145346 20 0 0.0 0.0 0.00 0.00 0.00 92 1021.4
20260906144754 20 0 0.0 0.0 0.00 0.00 0.00 93 1021.4
20260906144153 20 0 0.0 0.0 0.00 0.00 0.00 94 1021.4
20260906143717 20 0 0.0 0.0 0.00 0.00 0.00 95 1021.4
20260906143551 20 0 0.0 0.0 0.00 0.00 0.00 95 1021.5
20260906142950 19 0 0.0 0.0 0.00 0.00 0.00 96 1021.4
20260906142349 19 0 0.0 0.0 0.00 0.00 0.00 96 1021.4
20260906141746 19 0 0.0 0.0 0.00 0.00 0.00 96 1021.4
20260906141709 19 0 0.0 0.0 0.00 0.00 0.00 96 1021.4
20260906141151 19 318 1.6 4.8 0.00 0.00 0.00 97 1021.5
20260906140552 19 0 0.0 0.0 0.00 0.00 0.00 98 1021.5
20260906135950 18 0 0.0 0.0 0.00 0.00 0.00 100 1021.5
20260906135716 18 317 0.0 1.6 0.00 0.00 0.00 100 1021.6
20260906135350 18 317 1.6 3.2 0.00 0.00 0.00 100 1021.5
20260906134745 18 0 0.0 0.0 0.00 0.00 0.00 100 1021.5
20260906134154 18 276 1.6 4.8 0.00 0.00 0.00 100 1021.6
20260906133711 18 0 0.0 0.0 0.00 0.00 0.00 100 1021.6
20260906133547 17 0 0.0 0.0 0.00 0.00 0.00 100 1021.7
20260906132953 17 0 0.0 0.0 0.00 0.00 0.00 100 1021.6
20260906132345 17 0 0.0 0.0 0.00 0.00 0.00 100 1021.7
20260906131747 17 0 0.0 0.0 0.00 0.00 0.00 100 1021.6
20260906131715 17 0 0.0 0.0 0.00 0.00 0.00 100 1021.6
20260906131151 17 0 0.0 0.0 0.00 0.00 0.00 100 1021.4
20260906130554 17 0 0.0 0.0 0.00 0.00 0.00 100 1021.4
20260906125949 16 0 0.0 0.0 0.00 0.00 0.00 100 1021.4
20260906125713 16 0 0.0 0.0 0.00 0.00 0.00 100 1021.5
20260906125349 16 0 0.0 0.0 0.00 0.00 0.00 100 1021.5
20260906124748 15 0 0.0 0.0 0.00 0.00 0.00 100 1021.5
20260906124146 15 0 0.0 0.0 0.00 0.00 0.00 100 1021.3
20260906123716 15 0 0.0 0.0 0.00 0.00 0.00 100 1021.4
20260906123552 15 0 0.0 0.0 0.00 0.00 0.00 100 1021.5
20260906122951 15 0 0.0 0.0 0.00 0.00 0.00 100 1021.5
20260906122345 14 0 0.0 0.0 0.00 0.00 0.00 100 1021.4
20260906121753 14 0 0.0 0.0 0.00 0.00 0.00 100 1021.4
20260906121718 14 0 0.0 0.0 0.00 0.00 0.00 100 1021.4
20260906121152 14 0 0.0 0.0 0.00 0.00 0.00 100 1021.2
20260906120546 14 0 0.0 0.0 0.00 0.00 0.00 100 1021.1
20260906115954 14 0 0.0 0.0 0.00 0.00 0.00 100 1020.9
20260906115721 14 0 0.0 0.0 0.00 0.00 0.00 100 1020.9
20260906115352 14 0 0.0 0.0 0.00 0.00 0.00 100 1020.9
20260906114751 14 0 0.0 0.0 0.00 0.00 0.00 100 1020.8
20260906114148 14 0 0.0 0.0 0.00 0.00 0.00 100 1020.7
20260906113718 14 0 0.0 0.0 0.00 0.00 0.00 100 1020.6
20260906113715 14 0 0.0 0.0 0.00 0.00 0.00 100 1020.6
20260906113551 14 0 0.0 0.0 0.00 0.00 0.00 100 1020.8
20260906112947 14 0 0.0 0.0 0.00 0.00 0.00 100 1020.7
20260906112354 13 0 0.0 0.0 0.00 0.00 0.00 100 1020.6
20260906111728 13 0 0.0 0.0 0.00 0.00 0.00 100 1020.6
20260906111150 14 0 0.0 0.0 0.00 0.00 0.00 100 1020.5
20260906110547 14 0 0.0 0.0 0.00 0.00 0.00 100 1020.3
20260906105946 14 0 0.0 0.0 0.00 0.00 0.00 100 1020.2
20260906105352 14 0 0.0 0.0 0.00 0.00 0.00 100 1020.2
20260906104748 14 0 0.0 0.0 0.00 0.00 0.00 100 1020.1
20260906104147 14 0 0.0 0.0 0.00 0.00 0.00 100 1020.3
20260906103724 14 0 0.0 0.0 0.00 0.00 0.00 100 1020.3
20260906103553 14 0 0.0 0.0 0.00 0.00 0.00 100 1020.2
20260906102950 14 0 0.0 0.0 0.00 0.00 0.00 100 1020.3
20260906102353 14 0 0.0 0.0 0.00 0.00 0.00 100 1020.2
20260906101956 14 0 0.0 0.0 0.00 0.00 0.00 100 1020.1
20260906101723 14 0 0.0 0.0 0.00 0.00 0.00 100 1020.1
20260906101151 14 0 0.0 0.0 0.00 0.00 0.00 100 1020.2
20260906100549 14 0 0.0 0.0 0.00 0.00 0.00 100 1020.3
20260906095947 14 0 0.0 0.0 0.00 0.00 0.00 100 1020.3
20260906095713 14 0 0.0 0.0 0.00 0.00 0.00 100 1020.3
20260906095353 14 0 0.0 0.0 0.00 0.00 0.00 100 1020.2
20260906094751 14 0 0.0 0.0 0.00 0.00 0.00 100 1020.3
20260906094151 14 0 0.0 0.0 0.00 0.00 0.00 100 1020.2
20260906093722 14 0 0.0 0.0 0.00 0.00 0.00 100 1020.2
20260906093545 14 0 0.0 0.0 0.00 0.00 0.00 100 1020.3
20260906092953 14 0 0.0 0.0 0.00 0.00 0.00 100 1020.2
20260906092348 15 0 0.0 0.0 0.00 0.00 0.00 100 1020.3
20260906092229 15 0 0.0 0.0 0.00 0.00 0.00 100 1020.4
20260906092116 15 0 0.0 0.0 0.00 0.00 0.00 100 1020.4
20260906091749 15 0 0.0 0.0 0.00 0.00 0.00 100 1020.4
20260906091718 15 0 0.0 0.0 0.00 0.00 0.00 100 1020.4
20260906091146 15 0 0.0 0.0 0.00 0.00 0.00 100 1020.5
20260906090551 15 0 0.0 0.0 0.00 0.00 0.00 100 1020.6
20260906085950 15 0 0.0 0.0 0.00 0.00 0.00 100 1020.6
20260906085718 15 0 0.0 0.0 0.00 0.00 0.00 100 1020.6
20260906085346 15 0 0.0 0.0 0.00 0.00 0.00 100 1020.5
20260906084745 15 0 0.0 0.0 0.00 0.00 0.00 100 1020.4
20260906084152 15 0 0.0 0.0 0.00 0.00 0.00 100 1020.4
20260906083753 15 0 0.0 0.0 0.00 0.00 0.00 100 1020.5
20260906083714 15 0 0.0 0.0 0.00 0.00 0.00 100 1020.5
20260906083551 15 0 0.0 0.0 0.00 0.00 0.00 100 1020.5
20260906082950 15 0 0.0 0.0 0.00 0.00 0.00 100 1020.5
20260906082347 15 0 0.0 0.0 0.00 0.00 0.00 100 1020.4
20260906081746 15 0 0.0 0.0 0.00 0.00 0.00 100 1020.5
20260906081145 15 0 0.0 0.0 0.00 0.00 0.00 100 1020.3
20260906080552 15 0 0.0 0.0 0.00 0.00 0.00 100 1020.3
20260906075952 15 0 0.0 0.0 0.00 0.00 0.00 100 1020.2
20260906075715 15 0 0.0 0.0 0.00 0.00 0.00 100 1020.3
20260906075349 15 0 0.0 0.0 0.00 0.00 0.00 100 1020.3
20260906074748 15 0 0.0 0.0 0.00 0.00 0.00 100 1020.2
20260906074148 15 0 0.0 0.0 0.00 0.00 0.00 100 1020.3
20260906073758 15 0 0.0 0.0 0.00 0.00 0.00 100 1020.3
20260906073713 15 0 0.0 0.0 0.00 0.00 0.00 100 1020.3
20260906073546 15 0 0.0 0.0 0.00 0.00 0.00 100 1020.4
20260906072953 16 0 0.0 0.0 0.00 0.00 0.00 100 1020.4
20260906072347 16 0 0.0 0.0 0.00 0.00 0.00 100 1020.5
20260906071747 16 0 0.0 0.0 0.00 0.00 0.00 100 1020.5
20260906071147 16 0 0.0 0.0 0.00 0.00 0.00 100 1020.5
20260906070552 16 0 0.0 0.0 0.00 0.00 0.00 100 1020.5
20260906065951 16 0 0.0 0.0 0.00 0.00 0.00 100 1020.7
20260906065716 16 0 0.0 0.0 0.00 0.00 0.00 100 1020.5
20260906065348 16 0 0.0 0.0 0.00 0.00 0.00 100 1020.6
20260906064746 16 0 0.0 0.0 0.00 0.00 0.00 100 1020.6
20260906064145 16 0 0.0 0.0 0.00 0.00 0.00 100 1020.6
20260906063723 16 0 0.0 0.0 0.00 0.00 0.00 100 1020.6
20260906063554 16 0 0.0 0.0 0.00 0.00 0.00 100 1020.6
20260906062953 16 0 0.0 0.0 0.00 0.00 0.00 100 1020.5
20260906062349 16 0 0.0 0.0 0.00 0.00 0.00 100 1020.5
20260906061747 16 0 0.0 0.0 0.00 0.00 0.00 100 1020.6
20260906061710 16 0 0.0 0.0 0.00 0.00 0.00 100 1020.6
20260906061145 16 0 0.0 0.0 0.00 0.00 0.00 100 1020.8
20260906060552 16 0 0.0 0.0 0.00 0.00 0.00 100 1020.5
20260906055950 17 0 0.0 0.0 0.00 0.00 0.00 100 1020.5
20260906055714 17 0 0.0 0.0 0.00 0.00 0.00 100 1020.5
20260906055347 17 0 0.0 0.0 0.00 0.00 0.00 100 1020.4
20260906054746 17 0 0.0 0.0 0.00 0.00 0.00 100 1020.2
20260906054146 17 0 0.0 0.0 0.00 0.00 0.00 100 1020.3
20260906053722 17 0 0.0 0.0 0.00 0.00 0.00 3 1023.1
20260906053717 17 0 0.0 0.0 0.00 0.00 0.00 100 1020.1
20260906053553 17 0 0.0 0.0 0.00 0.00 0.00 100 1020.2
20260906052952 17 0 0.0 0.0 0.00 0.00 0.00 100 1020.2
20260906052347 17 0 0.0 0.0 0.00 0.00 0.00 100 1020.2
20260906051724 18 0 0.0 0.0 0.00 0.00 0.00 100 1020.1
20260906051152 18 0 0.0 0.0 0.00 0.00 0.00 100 1020.2
20260906050549 18 0 0.0 0.0 0.00 0.00 0.00 100 1020.1
20260906045946 18 0 0.0 0.0 0.00 0.00 0.00 100 1020.1
20260906045719 18 0 0.0 0.0 0.00 0.00 0.00 100 1020.0
20260906045352 18 0 0.0 0.0 0.00 0.00 0.00 100 1020.1
20260906044752 18 0 0.0 0.0 0.00 0.00 0.00 100 1020.2
20260906044152 18 0 0.0 0.0 0.00 0.00 0.00 100 1020.1
20260906043717 18 0 0.0 0.0 0.00 0.00 0.00 100 1020.2
20260906043547 18 0 0.0 0.0 0.00 0.00 0.00 100 1020.1
20260906042954 18 0 0.0 0.0 0.00 0.00 0.00 99 1020.1
20260906042346 18 0 0.0 0.0 0.00 0.00 0.00 99 1020.2
20260906041746 18 0 0.0 0.0 0.00 0.00 0.00 99 1020.2
20260906041709 18 0 0.0 0.0 0.00 0.00 0.00 99 1020.2
20260906041144 18 0 0.0 0.0 0.00 0.00 0.00 98 1020.0
20260906040552 18 0 0.0 0.0 0.00 0.00 0.00 98 1019.8
20260906035950 18 0 0.0 0.0 0.00 0.00 0.00 97 1019.9
20260906035717 18 0 0.0 0.0 0.00 0.00 0.00 97 1019.8
20260906035344 18 0 0.0 0.0 0.00 0.00 0.00 97 1019.8
20260906034744 18 0 0.0 0.0 0.00 0.00 0.00 97 1019.7
20260906034149 18 0 0.0 0.0 0.00 0.00 0.00 97 1019.7
20260906033710 18 0 0.0 0.0 0.00 0.00 0.00 98 1019.8
20260906033547 18 0 0.0 0.0 0.00 0.00 0.00 98 1019.8
20260906032946 18 0 0.0 0.0 0.00 0.00 0.00 99 1019.7
20260906032350 18 0 0.0 0.0 0.00 0.00 0.00 100 1019.7
20260906032034 18 0 0.0 0.0 0.00 0.00 0.00 100 1019.8
20260906031749 18 0 0.0 0.0 0.00 0.00 0.00 100 1019.8
20260906031711 18 0 0.0 0.0 0.00 0.00 0.00 100 1019.8
20260906031147 18 0 0.0 0.0 0.00 0.00 0.00 100 1019.8
20260906030551 18 0 0.0 0.0 0.00 0.00 0.00 100 1019.8
20260906025949 18 0 0.0 0.0 0.00 0.00 0.00 100 1019.6
20260906025947 18 0 0.0 0.0 0.00 0.00 0.00 100 1019.6
20260906025712 18 0 0.0 0.0 0.00 0.00 0.00 100 1019.6
20260906025352 18 68 1.6 1.6 0.00 0.00 0.00 100 1019.5
20260906024750 18 0 0.0 0.0 0.00 0.00 0.00 100 1019.3
20260906024148 18 71 1.6 4.8 0.00 0.00 0.00 100 1019.2
20260906024112 18 0 0.0 0.0 0.00 0.00 0.00 100 1019.4
20260906023808 18 0 0.0 0.0 0.00 0.00 0.00 100 1019.4
20260906023727 18 0 0.0 0.0 0.00 0.00 0.00 100 1019.4
20260906023554 18 0 0.0 0.0 0.00 0.00 0.00 100 1019.5
20260906022953 18 0 0.0 0.0 0.00 0.00 0.00 100 1019.5
20260906022347 18 0 0.0 0.0 0.00 0.00 0.00 100 1019.4
20260906022121 18 0 0.0 0.0 0.00 0.00 0.00 100 1019.4
20260906021721 18 0 0.0 0.0 0.00 0.00 0.00 100 1019.4
20260906021144 18 0 0.0 0.0 0.00 0.00 0.00 100 1019.4
20260906020549 18 0 0.0 0.0 0.00 0.00 0.00 100 1019.5
20260906015948 18 0 0.0 0.0 0.00 0.00 0.00 100 1019.5
20260906015719 18 0 0.0 0.0 0.00 0.00 0.00 100 1019.4
20260906015353 18 0 0.0 0.0 0.00 0.00 0.00 100 1019.3
20260906014751 18 0 0.0 0.0 0.00 0.00 0.00 100 1019.4
20260906014149 18 0 0.0 0.0 0.00 0.00 0.00 100 1019.4
20260906013716 18 0 0.0 0.0 0.00 0.00 0.00 100 1019.4
20260906013544 18 0 0.0 0.0 0.00 0.00 0.00 100 1019.4
20260906012950 18 0 0.0 0.0 0.00 0.00 0.00 100 1019.3
20260906012353 18 0 0.0 0.0 0.00 0.00 0.00 98 1019.1
20260906012028 18 0 0.0 0.0 0.00 0.00 0.00 96 1019.0
20260906011750 18 0 0.0 0.0 0.00 0.00 0.00 96 1019.0
20260906011712 18 0 0.0 0.0 0.00 0.00 0.00 96 1019.0
20260906011148 18 0 0.0 0.0 0.00 0.00 0.00 95 1019.1
20260906010552 18 0 0.0 0.0 0.00 0.00 0.00 94 1019.1
20260906005951 18 0 0.0 0.0 0.00 0.00 0.00 93 1019.2
20260906005716 18 0 0.0 0.0 0.00 0.00 0.00 93 1019.3
20260906005348 18 0 0.0 0.0 0.00 0.00 0.00 93 1019.3
20260906004745 18 0 0.0 0.0 0.00 0.00 0.00 92 1019.1
20260906004145 19 0 0.0 0.0 0.00 0.00 0.00 91 1019.3
20260906003715 19 0 0.0 0.0 0.00 0.00 0.00 90 1019.2
20260906003552 19 0 0.0 0.0 0.00 0.00 0.00 91 1019.2
20260906002950 19 0 0.0 0.0 0.00 0.00 0.00 89 1019.3
20260906002345 19 0 0.0 0.0 0.00 0.00 0.00 88 1019.3
20260906002004 20 0 0.0 0.0 0.00 0.00 0.00 87 1019.5
20260906001753 20 0 0.0 0.0 0.00 0.00 0.00 87 1019.5
20260906001716 20 0 0.0 0.0 0.00 0.00 0.00 87 1019.5
20260906001150 20 0 0.0 0.0 0.00 0.00 0.00 85 1019.5
20260906000553 20 0 0.0 0.0 0.00 0.00 0.00 84 1019.5
20260905235951 20 75 1.6 4.8 0.00 0.00 0.00 82 1019.5
20260905235716 20 0 0.0 0.0 0.00 0.00 0.00 81 1019.5
20260905235347 20 0 0.0 0.0 0.00 0.00 0.00 81 1019.4
20260905234747 21 0 0.0 0.0 0.00 0.00 0.00 79 1019.3
20260905234153 21 0 0.0 0.0 0.00 0.00 0.00 78 1019.4
20260905233717 21 0 0.0 0.0 0.00 0.00 0.00 78 1019.5
20260905233550 21 0 0.0 0.0 0.00 0.00 0.00 77 1019.3
20260905232947 21 0 0.0 0.0 0.00 0.00 0.00 77 1019.3
20260905232352 21 83 3.2 6.4 0.00 0.00 0.00 76 1019.2
20260905232047 21 74 6.4 9.7 0.00 0.00 0.00 75 1019.2
20260905231752 21 74 6.4 9.7 0.00 0.00 0.00 75 1019.2
20260905231715 21 74 6.4 9.7 0.00 0.00 0.00 75 1019.2
20260905231150 21 71 4.8 6.4 0.00 0.00 0.00 75 1019.1
20260905230546 22 70 4.8 6.4 0.00 0.00 0.00 75 1019.4
20260905225944 22 79 1.6 4.8 0.00 0.00 0.00 75 1019.3
20260905225345 22 50 0.0 3.2 0.00 0.00 0.00 74 1019.4
20260905224744 22 0 0.0 0.0 0.00 0.00 0.00 71 1019.4
20260905224153 22 60 3.2 4.8 0.00 0.00 0.00 70 1019.4
20260905223719 22 70 1.6 3.2 0.00 0.00 0.00 70 1019.3
20260905223551 22 65 1.6 4.8 0.00 0.00 0.00 70 1019.3
20260905222948 23 53 3.2 4.8 0.00 0.00 0.00 68 1019.3
20260905222345 23 65 3.2 4.8 0.00 0.00 0.00 66 1019.2
20260905221724 23 29 0.0 3.2 0.00 0.00 0.00 65 1019.2
20260905221153 23 99 1.6 4.8 0.00 0.00 0.00 66 1019.1
20260905220546 23 31 3.2 6.4 0.00 0.00 0.00 65 1019.4
20260905215946 23 72 3.2 4.8 0.00 0.00 0.00 68 1019.3
20260905215714 23 67 3.2 6.4 0.00 0.00 0.00 68 1019.4
20260905215351 23 79 1.6 4.8 0.00 0.00 0.00 68 1019.3
20260905214748 23 42 0.0 3.2 0.00 0.00 0.00 67 1019.4
20260905214148 23 84 3.2 6.4 0.00 0.00 0.00 69 1019.4
20260905213718 23 41 0.0 1.6 0.00 0.00 0.00 69 1019.4
20260905213553 23 66 1.6 4.8 0.00 0.00 0.00 69 1019.4
20260905212951 23 51 4.8 11.3 0.00 0.00 0.00 71 1019.3
20260905212345 23 78 4.8 9.7 0.00 0.00 0.00 73 1019.3
20260905211718 23 0 0.0 0.0 0.00 0.00 0.00 73 1019.4
20260905211151 22 345 3.2 4.8 0.00 0.00 0.00 73 1019.5
20260905210549 22 0 0.0 0.0 0.00 0.00 0.00 72 1019.6
20260905205949 22 90 1.6 6.4 0.00 0.00 0.00 73 1019.7
20260905205714 22 92 1.6 6.4 0.00 0.00 0.00 72 1019.6
20260905205346 22 79 3.2 6.4 0.00 0.00 0.00 72 1019.7
20260905204745 22 0 0.0 0.0 0.00 0.00 0.00 71 1019.7
20260905204144 22 78 0.0 1.6 0.00 0.00 0.00 75 1019.7
20260905203711 22 0 0.0 0.0 0.00 0.00 0.00 76 1019.7
20260905203549 22 0 0.0 0.0 0.00 0.00 0.00 77 1019.9
20260905202949 22 81 1.6 6.4 0.00 0.00 0.00 81 1019.8
20260905202345 21 0 0.0 0.0 0.00 0.00 0.00 81 1019.9
20260905201718 21 39 0.0 3.2 0.00 0.00 0.00 83 1020.1
20260905201151 21 0 0.0 0.0 0.00 0.00 0.00 85 1020.0
20260905200546 21 0 0.0 0.0 0.00 0.00 0.00 84 1020.0
20260905195944 21 47 0.0 4.8 0.00 0.00 0.00 83 1020.0
20260905195719 21 35 1.6 3.2 0.00 0.00 0.00 83 1020.2
20260905195348 21 0 0.0 0.0 0.00 0.00 0.00 85 1020.1
20260905194746 21 0 0.0 0.0 0.00 0.00 0.00 86 1020.0
20260905194150 21 356 0.0 3.2 0.00 0.00 0.00 85 1020.0
20260905193717 21 41 0.0 3.2 0.00 0.00 0.00 85 1019.9
20260905193553 21 360 0.0 1.6 0.00 0.00 0.00 84 1020.0
20260905192951 21 330 1.6 6.4 0.00 0.00 0.00 85 1019.9
20260905192346 21 343 3.2 6.4 0.00 0.00 0.00 85 1019.9
20260905191754 21 327 0.0 1.6 0.00 0.00 0.00 87 1020.1
20260905191718 21 327 0.0 1.6 0.00 0.00 0.00 87 1020.1
20260905191151 21 342 1.6 4.8 0.00 0.00 0.00 86 1020.0
20260905190545 21 326 0.0 3.2 0.00 0.00 0.00 88 1019.9
20260905185952 21 318 0.0 3.2 0.00 0.00 0.00 87 1019.9
20260905185717 21 314 1.6 3.2 0.00 0.00 0.00 88 1019.8
20260905185350 21 319 0.0 1.6 0.00 0.00 0.00 89 1020.1
20260905184746 21 313 3.2 4.8 0.00 0.00 0.00 90 1020.1
20260905184146 21 350 3.2 6.4 0.00 0.00 0.00 89 1019.9
20260905183725 21 307 0.0 4.8 0.00 0.00 0.00 92 1019.8
20260905183550 21 321 1.6 6.4 0.00 0.00 0.00 93 1019.8
20260905182950 20 315 1.6 4.8 0.00 0.00 0.00 94 1019.9
20260905182348 20 348 0.0 1.6 0.00 0.00 0.00 94 1020.0
20260905181747 20 345 0.0 1.6 0.00 0.00 0.00 96 1020.0
20260905181713 20 345 0.0 1.6 0.00 0.00 0.00 96 1020.0
20260905181145 20 0 0.0 0.0 0.00 0.00 0.00 99 1020.2
20260905180548 20 309 1.6 4.8 0.00 0.00 0.00 100 1020.2
20260905175946 20 0 0.0 0.0 0.00 0.00 0.00 100 1020.2
20260905175718 20 0 0.0 0.0 0.00 0.00 0.00 100 1020.1
20260905175354 20 69 1.6 3.2 0.00 0.00 0.00 100 1020.1
20260905174753 20 0 0.0 0.0 0.00 0.00 0.00 100 1020.2
20260905174151 20 0 0.0 0.0 0.00 0.00 0.00 100 1020.1